Location: Barrio de Canyet
(41.4665°N, 2.2381°E)
Time: 20:31:10
(UTC+00:00)

STARLINK-1189 - Pass Details

Date: 09 April 2020
Orbit: 378 x 381 km, 53.0° (Epoch: 31 May)

Event Time Altitude Azimuth Distance (km) Brightness Sun altitude
Rises 19:46:14 0° 313° (NW) 2,209 8.2 -15.2°
Reaches altitude 10° 19:48:22 10° 323° (NW) 1,361 6.6 -15.5°
Maximum altitude 19:51:10 33° 30° (NNE) 648 3.9 -16.0°
Enters shadow 19:51:49 29° 58° (ENE) 705 3.9 -16.1°
